Stations météo

réclame
Mon MeteoGroup
Aurillac, France (7549): Température de l'air & dewpoint: 19.02.2018 06:00:00 - 25.02.2018 06:00:00 (CET)Aurillac, France (7549): Température de l'air 5cm: 19.02.2018 06:00:00 - 25.02.2018 06:00:00 (CET)Aurillac, France (7549): Température de l'air -20cm & Température de l'air -100cm: 19.02.2018 06:00:00 - 25.02.2018 06:00:00 (CET)Aurillac, France (7549): Vitesse du vent & gusts: 19.02.2018 06:00:00 - 25.02.2018 06:00:00 (CET)Aurillac, France (7549): Direction du vent: 19.02.2018 06:00:00 - 25.02.2018 06:00:00 (CET)Aurillac, France (7549): reduced air pressure: 19.02.2018 06:00:00 - 25.02.2018 06:00:00 (CET)Aurillac, France (7549): visibility: 19.02.2018 06:00:00 - 25.02.2018 06:00:00 (CET)Aurillac, France (7549): Ensoleillement: 19.02.2018 06:00:00 - 25.02.2018 06:00:00 (CET)Aurillac, France (7549): Quantités de précipitations: 19.02.2018 06:00:00 - 25.02.2018 06:00:00 (CET)
Date & Time tt [°C] td [°C] tt 5cm [°C] tt -20cm [°C] tt -100cm [°C] ff [km/h] ff [knt] fx [km/h] fx [knt] dd ppp [hPa] vv [km] sd [min] rr [mm]
25.02.2018 06:00:00 -3,9 -4,7 -7,6 4,1 7,4 5 3 6 4 ESE 1013,4 4,0 0 0,0
25.02.2018 05:00:00 -4,0 -5,0 -7,4 4,1 7,4 0 0 7 4 N 1013,4 4,1 0 0,0
25.02.2018 04:00:00 -3,5 -4,6 -6,2 4,1 7,4 3 2 15 8 SSE 1013,3 4,7 0 0,0
25.02.2018 03:00:00 -3,3 -4,1 -6,0 4,2 7,4 10 5 12 7 E 1013,0 3,7 0 0,0
25.02.2018 02:00:00 -2,6 -4,0 -6,5 4,2 7,4 4 2 11 6 E 1013,2 5 0 0,0
25.02.2018 01:00:00 -1,8 -3,4 -5,3 4,2 7,4 0 0 10 5 N 1013,1 6 0 0,0
25.02.2018 00:00:00 -1,5 -3,5 -4,7 4,2 7,4 9 5 13 7 E 1012,5 6 0 0,0
24.02.2018 23:00:00 -0,7 -2,8 -4,0 4,2 7,4 8 5 10 6 ESE 1012,1 6 0 0,0
24.02.2018 22:00:00 -0,9 -2,9 -3,9 4,2 7,4 10 5 12 6 E 1012,4 6 0 0,0
24.02.2018 21:00:00 0,5 -2,6 -3,9 4,1 7,4 5 3 8 5 ESE 1011,8 8 0 0,0
24.02.2018 20:00:00 2,1 -2,2 -2,4 4,0 7,4 4 2 7 4 W 1011,2 7 0 0,0
24.02.2018 19:00:00 3,8 -1,6 1,2 4,0 7,4 5 3 14 7 WNW 1010,0 11 0 0,0
24.02.2018 18:00:00 5,0 -1,5 4,1 3,9 7,4 11 6 18 10 WNW 1009,1 13 0 0,0
24.02.2018 17:00:00 7,0 -1,7 7,7 3,8 7,4 9 5 15 8 W 1007,9 15 0 0,0
24.02.2018 16:00:00 7,2 -2,0 9,5 3,8 7,4 7 4 16 9 W 1007,7 16 10 0,0
24.02.2018 15:00:00 7,1 -2,1 10,6 3,7 7,4 7 4 14 7 WNW 1007,7 14 49 0,0
24.02.2018 14:00:00 5,0 -1,7 8,5 3,7 7,4 10 5 16 9 WNW 1008,4 11 31 0,0
24.02.2018 13:00:00 4,5 -1,9 9,6 3,8 7,5 8 5 16 9 WNW 1008,5 12 60 0,0
24.02.2018 12:00:00 2,3 -3,4 6,5 3,7 7,4 4 2 10 5 WNW 1009,4 9 45 0,0
24.02.2018 11:00:00 0,3 -3,4 1,7 3,8 7,4 0 0 9 5 N 1010,1 8 8 0,0
24.02.2018 10:00:00 -1,7 -4,2 0,4 3,8 7,4 4 2 7 4 WSW 1010,3 7 31 0,0
24.02.2018 09:00:00 -2,4 -5,1 -4,6 3,9 7,4 2 1 6 3 NNE 1010,8 8 42 0,0
24.02.2018 08:00:00 -4,6 -6,0 -6,2 3,9 7,4 3 2 7 4 E 1011,3 5 0 0,0
24.02.2018 07:00:00 -4,9 -6,3 -6,9 4,0 7,4 2 1 3 2 ESE 1010,8 6 0 0,0
24.02.2018 06:00:00 -5,0 -6,4 -7,2 4,0 7,4 0 0 5 3 N 1010,8 6 0 0,0
24.02.2018 05:00:00 -4,7 -6,4 -7,8 4,0 7,4 2 1 3 2 WSW 1010,8 6 0 0,0
24.02.2018 04:00:00 -4,9 -6,9 -7,9 4,1 7,5 0 0 6 3 N 1011,0 7 0 0,0
24.02.2018 03:00:00 -3,9 -6,5 -7,1 4,1 7,4 5 3 9 5 E 1010,9 8 0 0,0
24.02.2018 02:00:00 -3,9 -6,5 -7,0 4,2 7,5 5 3 9 5 E 1010,7 8 0 0,0
24.02.2018 01:00:00 -3,6 -6,1 -7,1 4,2 7,5 8 4 11 6 E 1010,7 8 0 0,0
24.02.2018 00:00:00 -3,5 -6,3 -5,1 4,2 7,5 8 4 14 7 ESE 1010,7 9 0 0,0
23.02.2018 23:00:00 -2,6 -6,1 -3,7 4,2 7,5 10 5 14 8 ESE 1010,5 9 0 0,0
23.02.2018 22:00:00 -2,1 -5,8 -2,9 4,1 7,5 10 5 18 10 ESE 1010,2 10 0 0,0
23.02.2018 21:00:00 -1,8 -5,5 -2,7 4,1 7,5 11 6 19 10 ESE 1010,4 9 0 0,0
23.02.2018 20:00:00 -0,9 -5,1 -1,7 4,0 7,5 10 6 17 9 ESE 1009,8 10 0 0,0
23.02.2018 19:00:00 0,2 -4,8 -1,2 4,0 7,5 10 5 13 7 SE 1009,2 9 7 0,0
23.02.2018 18:00:00 3,0 -4,9 3,6 3,9 7,5 3 1 10 5 W 1008,0 13 60 0,0
23.02.2018 17:00:00 3,6 -4,4 8,5 3,9 7,5 5 3 11 6 WNW 1007,8 12 60 0,0
23.02.2018 16:00:00 3,7 -4,3 5,2 3,9 7,5 5 3 12 7 NW 1007,9 11 44 0,0
23.02.2018 15:00:00 3,6 -3,7 9,3 3,8 7,5 7 4 22 12 NW 1007,9 12 60 0,0
23.02.2018 14:00:00 2,6 -4,8 7,3 3,8 7,5 7 4 13 7 NW 1008,7 12 53 0,0
23.02.2018 13:00:00 0,9 -5,1 3,6 3,9 7,5 5 3 12 6 NW 1009,7 11 38 0,0
23.02.2018 12:00:00 -0,1 -6,1 6,7 3,9 7,5 8 4 14 7 WNW 1010,2 11 60 0,0
23.02.2018 11:00:00 -0,9 -5,9 5,9 4,0 7,5 5 3 9 5 WNW 1010,5 9 60 0,0
23.02.2018 10:00:00 -1,2 -6,0 -1,5 4,0 7,5 0 0 7 4 N 1010,5 8 60 0,0
23.02.2018 09:00:00 -4,8 -6,8 -10,5 4,1 7,5 2 1 4 2 E 1011,3 7 46 0,0
23.02.2018 08:00:00 -7,9 -9,3 -11,4 4,1 7,5 0 0 5 3 N 1012,1 7 0 0,0
23.02.2018 07:00:00 -7,9 -8,8 -11,1 4,2 7,5 0 0 6 4 N 1011,7 6 0 0,0
23.02.2018 06:00:00 -7,2 -8,1 -10,6 4,3 7,5 2 1 5 3 E 1011,5 6 0 0,0
23.02.2018 05:00:00 -6,8 -7,7 -10,0 4,3 7,5 5 3 8 4 E 1011,1 6 0 0,0
23.02.2018 04:00:00 -6,5 -7,9 -10,1 4,4 7,5 4 2 6 4 SE 1011,5 7 0 0,0
23.02.2018 03:00:00 -6,3 -8,1 -9,4 4,4 7,5 0 0 8 5 N 1011,7 7 0 0,0
23.02.2018 02:00:00 -5,7 -7,4 -8,5 4,5 7,5 7 4 8 4 ESE 1011,7 7 0 0,0
23.02.2018 01:00:00 -4,7 -7,6 -7,7 4,5 7,5 3 2 7 4 SSE 1011,6 7 0 0,0
23.02.2018 00:00:00 -4,4 -7,3 -7,8 4,5 7,5 4 2 6 3 SW 1011,6 8 0 0,0
22.02.2018 23:00:00 -3,7 -7,1 -7,5 4,5 7,5 3 2 5 3 SW 1011,6 7 0 0,0
22.02.2018 22:00:00 -3,2 -6,5 -6,9 4,5 7,5 2 1 13 7 WSW 1011,6 9 0 0,0
22.02.2018 21:00:00 -2,8 -6,6 -6,0 4,5 7,5 5 3 7 4 SW 1011,4 9 0 0,0
22.02.2018 20:00:00 -2,0 -6,7 -5,4 4,5 7,5 0 0 11 6 N 1011,3 12 0 0,0
22.02.2018 19:00:00 -0,8 -7,0 -1,1 4,5 7,5 10 6 18 10 NNE 1011,2 14 0 0,0
22.02.2018 18:00:00 -0,9 -6,5 -0,8 4,5 7,5 8 4 24 13 N 1010,7 13 0 0,0
22.02.2018 17:00:00 -0,6 -6,6 0,0 4,5 7,5 16 9 29 16 NNE 1010,2 14 0 0,0
22.02.2018 16:00:00 0,5 -6,6 1,6 4,4 7,5 11 6 29 15 NE 1009,6 16 0 0,0
22.02.2018 15:00:00 1,6 -6,0 3,3 4,4 7,5 14 8 32 18 E 1008,7 17 1 0,0
22.02.2018 14:00:00 2,3 -6,6 5,8 4,4 7,5 12 7 31 17 NNE 1008,8 18 21 0,0
22.02.2018 13:00:00 2,8 -6,6 8,0 4,5 7,5 8 5 19 11 SE 1008,6 16 57 0,0
22.02.2018 12:00:00 2,5 -5,9 10,0 4,5 7,5 7 4 18 10 ESE 1008,9 15 60 0,0
22.02.2018 11:00:00 1,9 -6,0 5,2 4,6 7,5 4 2 14 8 E 1009,3 13 60 0,0
22.02.2018 10:00:00 -0,7 -5,7 0,8 4,6 7,5 11 6 16 9 SSW 1010,1 9 60 0,0
22.02.2018 09:00:00 -2,7 -6,2 -8,7 4,7 7,5 10 5 16 9 WNW 1010,9 9 41 0,0
22.02.2018 08:00:00 -5,8 -7,5 -9,5 4,8 7,5 0 0 8 4 N 1011,8 7 0 0,0
22.02.2018 07:00:00 -5,9 -7,4 -9,5 4,8 7,5 2 1 9 5 W 1012,1 8 0 0,0
22.02.2018 06:00:00 -4,9 -6,7 -8,4 4,9 7,5 7 4 11 6 S 1011,7 8 0 0,0
22.02.2018 05:00:00 -5,4 -6,8 -9,1 4,9 7,5 5 3 11 6 ESE 1012,2 8 0 0,0
22.02.2018 04:00:00 -4,6 -6,6 -8,2 5,0 7,5 5 3 8 4 WSW 1012,2 9 0 0,0
22.02.2018 03:00:00 -4,6 -6,7 -7,9 5,0 7,5 3 2 8 5 SE 1013,0 11 0 0,0
22.02.2018 02:00:00 -2,9 -6,4 -6,6 5,1 7,5 3 2 11 6 W 1013,0 13 0 0,0
22.02.2018 01:00:00 -2,5 -6,3 -5,8 5,1 7,5 9 5 15 8 SW 1013,1 14 0 0,0
22.02.2018 00:00:00 -2,5 -6,3 -6,7 5,1 7,5 9 5 11 6 SW 1013,4 11 0 0,0
21.02.2018 23:00:00 -1,3 -6,6 -4,5 5,1 7,5 6 4 14 8 WNW 1013,6 15 0 0,0
21.02.2018 22:00:00 -0,5 -6,5 -3,4 5,1 7,5 10 5 21 11 N 1013,8 18 0 0,0
21.02.2018 21:00:00 -0,4 -6,4 -2,9 5,1 7,5 5 3 16 9 NE 1014,2 15 0 0,0
21.02.2018 20:00:00 -0,5 -6,1 -2,7 5,1 7,5 8 4 17 9 N 1014,3 15 0 0,0
21.02.2018 19:00:00 0,2 -6,7 -1,4 5,0 7,5 9 5 28 15 N 1014,0 18 4 0,0
21.02.2018 18:00:00 2,1 -6,7 1,9 5,0 7,5 11 6 22 12 NNE 1013,0 19 60 0,0
21.02.2018 17:00:00 4,5 -4,8 8,0 4,9 7,5 5 3 33 18 ESE 1011,8 17 60 0,0
21.02.2018 16:00:00 4,5 -4,0 9,8 4,9 7,5 8 5 15 8 SE 1011,7 16 60 -
21.02.2018 15:00:00 4,9 -5,5 10,0 4,9 7,5 7 4 23 13 NE 1011,6 17 60 0,0
21.02.2018 14:00:00 3,5 -4,7 7,8 4,9 7,5 13 7 37 20 NNW 1012,6 16 60 0,0
21.02.2018 13:00:00 2,0 -5,6 6,5 4,9 7,5 20 11 36 20 N 1013,5 18 60 0,0
21.02.2018 12:00:00 1,3 -6,3 6,1 5,0 7,5 23 13 39 21 N 1014,1 17 60 0,0
21.02.2018 11:00:00 0,7 -6,6 3,8 5,1 7,5 20 11 31 17 N 1015,0 17 60 0,0
21.02.2018 10:00:00 -0,1 -7,4 1,4 5,1 7,5 20 11 39 21 N 1015,2 20 60 0,0
21.02.2018 09:00:00 -0,8 -7,4 -4,2 5,2 7,5 13 7 25 13 N 1015,0 18 39 0,0
21.02.2018 08:00:00 -2,7 -6,9 -6,4 5,3 7,5 4 2 10 5 W 1014,8 17 0 0,0
21.02.2018 07:00:00 -2,0 -6,0 -4,5 5,3 7,5 5 3 24 13 NW 1013,8 18 0 0,0
21.02.2018 06:00:00 -1,5 -4,7 -5,2 5,4 7,5 13 7 18 10 NNW 1013,7 17 0 0,0
21.02.2018 05:00:00 -1,3 -4,6 -5,0 5,4 7,5 2 1 15 8 N 1014,3 36 0 0,0
21.02.2018 04:00:00 -0,4 -2,6 -1,5 5,4 7,5 12 7 21 12 NNW 1014,5 46 0 0,0
21.02.2018 03:00:00 0,5 -1,7 -1,4 5,5 7,5 10 5 21 11 N 1014,5 57 0 0,0
21.02.2018 02:00:00 0,5 -0,8 -0,9 5,5 7,5 8 4 15 8 NW 1014,5 54 0 0,0
21.02.2018 01:00:00 1,6 -0,2 0,3 5,5 7,5 9 5 21 11 N 1014,8 60 0 0,0
21.02.2018 00:00:00 2,5 0,4 1,8 5,5 7,5 11 6 23 12 NNW 1014,7 60 0 0,0
20.02.2018 23:00:00 2,3 0,7 0,3 5,5 7,5 13 7 22 12 NW 1014,8 60 0 0,0
20.02.2018 22:00:00 2,8 0,5 1,9 5,5 7,5 10 5 27 14 NNW 1015,0 60 0 0,0
20.02.2018 21:00:00 3,3 1,0 2,9 5,5 7,5 16 8 35 19 NNW 1015,0 60 0 0,0
20.02.2018 20:00:00 3,9 0,8 3,1 5,5 7,5 20 11 41 22 N 1014,8 60 0 0,0
20.02.2018 19:00:00 4,3 1,2 3,4 5,4 7,5 14 7 26 14 NNW 1014,6 60 0 0,0
20.02.2018 18:00:00 4,9 2,3 4,0 5,4 7,5 17 9 37 20 N 1014,2 60 0 0,0
20.02.2018 17:00:00 6,2 3,2 6,1 5,3 7,5 17 9 41 22 N 1013,5 60 0 0,0
20.02.2018 16:00:00 7,1 3,2 7,3 5,3 7,5 19 10 37 20 NNW 1012,8 60 1 0,0
20.02.2018 15:00:00 6,9 3,9 7,3 5,2 7,5 21 11 39 21 N 1013,1 60 0 0,0
20.02.2018 14:00:00 7,1 4,9 7,4 5,2 7,5 15 8 37 20 N 1013,0 60 0 0,0
20.02.2018 13:00:00 7,5 5,5 7,0 5,2 7,5 15 8 30 16 N 1012,6 56 1 0,0
20.02.2018 12:00:00 7,4 5,9 6,8 5,2 7,5 17 9 40 21 NNW 1012,7 17 0 0,0
20.02.2018 11:00:00 6,4 6,3 6,0 5,2 7,5 20 11 32 18 NW 1013,0 14 0 0,0
20.02.2018 10:00:00 5,8 5,8 5,5 5,2 7,5 18 10 29 16 WNW 1013,1 9 0 0,2
20.02.2018 09:00:00 5,3 5,3 5,1 5,2 7,5 18 10 29 16 WNW 1013,2 0,4 0 0,2
20.02.2018 08:00:00 4,9 4,9 4,5 5,2 7,5 16 8 23 13 NW 1013,4 1,3 0 0,2
20.02.2018 07:00:00 4,4 4,4 4,3 5,2 7,5 7 4 11 6 WNW 1013,5 0,3 0 1,0
20.02.2018 06:00:00 4,2 4,2 4,1 5,2 7,5 6 4 11 6 WNW 1014,0 0,3 0 1,0
20.02.2018 05:00:00 4,0 4,0 4,0 5,2 7,5 7 4 17 9 WNW 1014,4 0,4 0 0,8
20.02.2018 04:00:00 3,9 3,8 3,9 5,2 7,5 13 7 18 10 WNW 1015,0 0,4 0 0,2
20.02.2018 03:00:00 3,9 3,8 3,9 5,2 7,5 11 6 18 10 NW 1015,2 3,9 0 0,0
20.02.2018 02:00:00 3,8 3,7 3,9 5,1 7,5 10 5 18 10 NW 1015,7 6 0 0,0
20.02.2018 01:00:00 3,9 3,8 3,9 5,1 7,5 10 6 17 9 NW 1016,2 2,8 0 0,0
20.02.2018 00:00:00 3,9 3,8 3,8 5,1 7,5 9 5 14 8 NW 1016,3 3,0 0 0,0
19.02.2018 23:00:00 3,9 3,5 3,8 5,1 7,5 9 5 16 9 WNW 1016,5 6 0 0,0
19.02.2018 22:00:00 4,0 3,3 3,6 5,1 7,5 8 4 12 6 NW 1016,8 14 0 0,0
19.02.2018 21:00:00 4,1 2,8 3,6 5,1 7,4 7 4 10 5 NW 1017,1 19 0 0,0
19.02.2018 20:00:00 4,3 2,2 3,3 5,0 7,5 7 4 11 6 WNW 1017,2 30 0 0,0
19.02.2018 19:00:00 4,6 2,1 4,0 5,0 7,5 7 4 16 9 WNW 1017,2 32 0 0,0
19.02.2018 18:00:00 5,3 1,9 5,1 4,9 7,5 13 7 20 11 WNW 1016,8 56 0 0,0
19.02.2018 17:00:00 6,1 0,4 6,1 4,9 7,5 13 7 21 11 WNW 1016,8 60 0 0,0
19.02.2018 16:00:00 6,7 -0,3 8,3 4,8 7,5 14 8 21 11 NW 1016,7 60 0 0,0
19.02.2018 15:00:00 7,0 0,9 9,5 4,8 7,4 14 7 18 10 WNW 1016,8 59 2 0,0
19.02.2018 14:00:00 6,4 -2,5 11,1 4,8 7,5 10 6 14 8 NNW 1017,3 60 52 0,0
19.02.2018 13:00:00 5,4 -1,8 12,1 4,9 7,4 6 3 13 7 WNW 1018,2 51 57 0,0
19.02.2018 12:00:00 4,5 -1,9 9,3 4,9 7,5 5 3 9 5 WNW 1019,0 19 60 0,0
19.02.2018 11:00:00 2,4 -0,9 7,4 5,0 7,5 3 1 5 3 WNW 1019,5 19 60 0,0
19.02.2018 10:00:00 0,5 -0,6 0,3 5,1 7,5 0 0 6 3 N 1020,4 19 60 0,0
19.02.2018 09:00:00 -2,2 -2,5 -9,1 5,1 7,5 0 0 6 3 N 1021,2 10 35 0,0
19.02.2018 08:00:00 -5,1 -5,9 -9,2 5,2 7,5 0 0 3 2 N 1022,2 0,3 0 0,0
19.02.2018 07:00:00 -4,3 -4,7 -9,3 5,3 7,5 2 1 4 2 WNW 1021,7 8 0 0,0
19.02.2018 06:00:00 -4,5 -5,0 -9,1 5,4 7,5 3 1 6 4 E 1021,6 7 0 0,0

tt = Température de l'air
td = dewpoint
tt 5cm = Température de l'air 5cm
tt -20cm = Température de l'air -20cm
tt -100cm = Température de l'air -100cm
ff = Vitesse du vent
fx = gusts
dd = Direction du vent
ppp = reduced air pressure
vv = visibility
sd = Ensoleillement
rr = Quantités de précipitations

stations d'obs. à proximité